EW6196 Weather Reports


Display with metric or nautical units.
time (UTC)temp
F
wind
direction
speed
MPH
gust
MPH
rain 1hr
in
rain 24hr
in
rain mn
in
humidity
%
barometer
mb
20220127083437 31 21 1.0 5.0 0.00 0.00 0.00 84 1009.4
20220127082937 31 21 1.0 5.0 0.00 0.00 0.00 84 1009.3
20220127082436 31 21 1.0 3.0 0.00 0.00 0.00 84 1009.2
20220127081936 31 21 1.0 3.0 0.00 0.00 0.00 84 1009.1
20220127081435 31 21 1.0 3.0 0.00 0.00 0.00 84 1009.0
20220127080934 31 20 1.0 3.0 0.00 0.00 0.00 84 1009.0
20220127080127 31 21 1.0 3.0 0.00 0.00 0.00 84 1008.9
20220127075621 31 20 1.0 3.0 0.00 0.00 0.00 84 1008.9
20220127075116 31 21 1.0 4.0 0.00 0.00 0.00 84 1008.8
20220127074609 30 20 2.0 4.0 0.00 0.00 0.00 84 1008.6
20220127074103 30 21 1.0 4.0 0.00 0.00 0.00 84 1008.6
20220127073557 30 20 2.0 4.0 0.00 0.00 0.00 84 1008.5
20220127073053 30 21 2.0 4.0 0.00 0.00 0.00 84 1008.5
20220127072547 30 21 2.0 5.0 0.00 0.00 0.00 84 1008.4
20220127072040 30 21 2.0 5.0 0.00 0.00 0.00 84 1008.4
20220127071534 30 21 2.0 4.0 0.00 0.00 0.00 84 1008.4
20220127071028 30 20 2.0 4.0 0.00 0.00 0.00 83 1008.4
20220127070521 30 21 1.0 7.0 0.00 0.00 0.00 83 1008.4
20220127070016 29 21 2.0 7.0 0.00 0.00 0.00 83 1008.3
20220127065510 29 20 2.0 5.0 0.00 0.00 0.00 83 1008.3
20220127065004 29 21 1.0 4.0 0.00 0.00 0.00 82 1008.3
20220127064458 29 21 1.0 5.0 0.00 0.00 0.00 82 1008.3
20220127063951 29 21 2.0 5.0 0.00 0.00 0.00 82 1008.3
20220127063446 29 20 2.0 7.0 0.00 0.00 0.00 82 1008.3
20220127062939 29 21 3.0 9.0 0.00 0.00 0.00 82 1008.3
20220127062433 29 21 4.0 9.0 0.00 0.00 0.00 81 1008.3
20220127061930 29 21 4.0 9.0 0.00 0.00 0.00 80 1008.4
20220127061430 29 20 4.0 10.0 0.00 0.00 0.00 80 1008.4
20220127060930 29 21 4.0 10.0 0.00 0.00 0.00 79 1008.4
20220127060429 29 21 3.0 10.0 0.00 0.00 0.00 79 1008.4
20220127055937 29 21 3.0 8.0 0.00 0.00 0.00 78 1008.3
20220127055431 29 21 3.0 8.0 0.00 0.00 0.00 78 1008.3
20220127054929 29 21 3.0 8.0 0.00 0.00 0.00 78 1008.3
20220127054430 29 20 3.0 8.0 0.00 0.00 0.00 78 1008.3
20220127053928 29 21 3.0 7.0 0.00 0.00 0.00 78 1008.3
20220127053429 29 21 3.0 7.0 0.00 0.00 0.00 78 1008.3
20220127052928 29 20 3.0 8.0 0.00 0.00 0.00 78 1008.3
20220127052428 28 21 3.0 9.0 0.00 0.00 0.00 78 1008.2
20220127051927 28 20 3.0 9.0 0.00 0.00 0.00 78 1008.2
20220127051427 28 21 3.0 8.0 0.00 0.00 0.00 77 1008.1
20220127050926 28 21 3.0 9.0 0.00 0.00 0.00 77 1008.1
20220127050426 28 21 3.0 9.0 0.00 0.00 0.00 77 1008.1
20220127045928 28 20 3.0 10.0 0.00 0.00 0.00 77 1008.1
20220127045428 28 20 3.0 11.0 0.00 0.00 0.00 77 1008.1
20220127044926 28 21 3.0 11.0 0.00 0.00 0.00 77 1008.2
20220127044426 28 21 3.0 10.0 0.00 0.00 0.00 77 1008.2
20220127043924 28 20 3.0 10.0 0.00 0.00 0.00 77 1008.3
20220127043424 28 21 4.0 10.0 0.00 0.00 0.00 76 1008.2
20220127042924 28 21 5.0 10.0 0.00 0.00 0.00 76 1008.1
20220127042424 28 20 4.0 10.0 0.00 0.00 0.00 76 1008.1
20220127041924 27 21 4.0 10.0 0.00 0.00 0.00 76 1008.2
20220127041431 28 21 5.0 10.0 0.00 0.00 0.00 76 1008.1
20220127040927 27 20 5.0 11.0 0.00 0.00 0.00 76 1008.1
20220127040429 27 21 4.0 12.0 0.00 0.00 0.00 76 1008.1
20220127035925 27 20 4.0 12.0 0.00 0.00 0.00 76 1008.2
20220127035422 27 20 4.0 10.0 0.00 0.00 0.00 76 1008.3
20220127034921 27 21 4.0 10.0 0.00 0.00 0.00 76 1008.4
20220127034420 27 21 3.0 9.0 0.00 0.00 0.00 76 1008.4
20220127033918 26 20 3.0 10.0 0.00 0.00 0.00 76 1008.3
20220127033418 26 21 3.0 10.0 0.00 0.00 0.00 76 1008.3
20220127032918 26 21 3.0 8.0 0.00 0.00 0.00 76 1008.3
20220127032417 26 21 4.0 10.0 0.00 0.00 0.00 76 1008.3
20220127031916 26 21 5.0 10.0 0.00 0.00 0.00 75 1008.4
20220127031417 26 21 5.0 14.0 0.00 0.00 0.00 75 1008.5
20220127030918 26 21 5.0 14.0 0.00 0.00 0.00 75 1008.6
20220127030418 26 21 5.0 15.0 0.00 0.00 0.00 75 1008.5
20220127025917 26 20 5.0 16.0 0.00 0.00 0.00 75 1008.6
20220127025417 26 20 6.0 17.0 0.00 0.00 0.00 75 1008.5
20220127024916 26 20 6.0 17.0 0.00 0.00 0.00 75 1008.6
20220127024415 26 20 6.0 14.0 0.00 0.00 0.00 74 1008.5
20220127023915 26 19 6.0 14.0 0.00 0.00 0.00 74 1008.5
20220127023414 26 21 6.0 12.0 0.00 0.00 0.00 74 1008.6
20220127022914 26 21 6.0 15.0 0.00 0.00 0.00 74 1008.7
20220127022414 26 21 6.0 15.0 0.00 0.00 0.00 74 1008.7
20220127021916 26 21 6.0 14.0 0.00 0.00 0.00 74 1008.8
20220127021414 26 21 5.0 12.0 0.00 0.00 0.00 74 1008.8
20220127020915 26 21 5.0 12.0 0.00 0.00 0.00 73 1008.9
20220127020415 26 21 7.0 17.0 0.00 0.00 0.00 73 1009.0
20220127015919 26 20 7.0 17.0 0.00 0.00 0.00 73 1009.0
20220127015412 26 15 6.0 14.0 0.00 0.00 0.00 73 1009.0
20220127014912 26 17 7.0 16.0 0.00 0.00 0.00 73 1009.0
20220127014415 25 18 7.0 16.0 0.00 0.00 0.00 74 1009.0
20220127013913 25 17 5.0 12.0 0.00 0.00 0.00 74 1008.8
20220127013413 25 18 5.0 14.0 0.00 0.00 0.00 74 1008.9
20220127012913 25 18 6.0 15.0 0.00 0.00 0.00 74 1008.9
20220127012413 25 22 6.0 15.0 0.00 0.00 0.00 74 1009.0
20220127011911 25 20 7.0 16.0 0.00 0.00 0.00 74 1009.0
20220127011411 25 20 7.0 16.0 0.00 0.00 0.00 74 1009.1
20220127010913 24 20 6.0 16.0 0.00 0.00 0.00 74 1009.0
20220127010412 24 20 7.0 16.0 0.00 0.00 0.00 74 1009.0
20220127005912 24 20 7.0 15.0 0.00 0.00 0.00 74 1009.0
20220127005412 24 19 7.0 15.0 0.00 0.00 0.00 74 1009.0
20220127004912 24 19 6.0 15.0 0.00 0.00 0.00 75 1009.2
20220127004419 24 19 6.0 15.0 0.00 0.00 0.00 74 1009.2
20220127003906 24 19 6.0 15.0 0.00 0.00 0.00 74 1009.3
20220127003411 24 19 6.0 14.0 0.00 0.00 0.00 74 1009.4
20220127002906 24 19 6.0 14.0 0.00 0.00 0.00 75 1009.5
20220127002406 24 19 5.0 18.0 0.00 0.00 0.00 74 1009.5
20220127001907 24 21 6.0 18.0 0.00 0.00 0.00 74 1009.8
20220127001405 24 15 7.0 14.0 0.00 0.00 0.00 74 1009.7
20220127000906 23 15 6.0 15.0 0.00 0.00 0.00 74 1009.7
20220127000405 23 15 5.0 15.0 0.00 0.00 0.00 75 1009.8
20220126235904 23 14 5.0 13.0 0.00 0.00 0.00 75 1009.8
20220126235403 23 14 5.0 13.0 0.00 0.00 0.00 74 1009.8
20220126234902 23 15 5.0 12.0 0.00 0.00 0.00 74 1009.8
20220126234400 23 17 5.0 15.0 0.00 0.00 0.00 74 1009.8
20220126233902 23 17 5.0 15.0 0.00 0.00 0.00 74 1009.9
20220126233402 23 15 5.0 14.0 0.00 0.00 0.00 74 1009.9
20220126232902 23 15 6.0 16.0 0.00 0.00 0.00 74 1010.0
20220126232400 23 15 6.0 16.0 0.00 0.00 0.00 74 1010.0
20220126231901 22 15 6.0 16.0 0.00 0.00 0.00 75 1010.1
20220126231359 22 13 5.0 16.0 0.00 0.00 0.00 75 1010.1
20220126230858 22 14 4.0 11.0 0.00 0.00 0.00 75 1010.1
20220126230355 21 14 3.0 8.0 0.00 0.00 0.00 75 1010.2
20220126225854 21 14 3.0 10.0 0.00 0.00 0.00 75 1010.3
20220126225355 20 14 3.0 10.0 0.00 0.00 0.00 75 1010.3
20220126224854 20 14 3.0 8.0 0.00 0.00 0.00 74 1010.4
20220126224355 20 14 3.0 8.0 0.00 0.00 0.00 74 1010.4
20220126223854 20 14 3.0 7.0 0.00 0.00 0.00 74 1010.4
20220126223354 20 14 3.0 7.0 0.00 0.00 0.00 74 1010.4
20220126222853 20 14 3.0 9.0 0.00 0.00 0.00 73 1010.6
20220126222355 20 14 2.0 9.0 0.00 0.00 0.00 73 1010.8
20220126221847 20 14 3.0 9.0 0.00 0.00 0.00 72 1010.7
20220126221040 20 14 3.0 9.0 0.00 0.00 0.00 71 1010.7
20220126220534 21 14 4.0 11.0 0.00 0.00 0.00 71 1010.8
20220126220028 21 14 4.0 11.0 0.00 0.00 0.00 72 1010.8
20220126215522 21 14 4.0 10.0 0.00 0.00 0.00 72 1010.8
20220126215016 20 14 4.0 11.0 0.00 0.00 0.00 72 1010.9
20220126214510 20 14 4.0 11.0 0.00 0.00 0.00 72 1010.9
20220126214004 20 14 5.0 13.0 0.00 0.00 0.00 71 1011.0
20220126213458 20 14 5.0 14.0 0.00 0.00 0.00 71 1011.2
20220126212952 20 14 5.0 14.0 0.00 0.00 0.00 71 1011.5
20220126212445 20 14 5.0 12.0 0.00 0.00 0.00 71 1011.6
20220126211941 20 14 6.0 13.0 0.00 0.00 0.00 71 1011.5
20220126211435 20 14 6.0 16.0 0.00 0.00 0.00 71 1011.5
20220126210928 19 14 6.0 16.0 0.00 0.00 0.00 71 1011.6
20220126210422 19 14 6.0 14.0 0.00 0.00 0.00 71 1011.7
20220126205916 19 14 6.0 14.0 0.00 0.00 0.00 71 1011.8
20220126205410 19 14 7.0 15.0 0.00 0.00 0.00 71 1011.8
20220126204904 19 13 6.0 15.0 0.00 0.00 0.00 71 1012.0
20220126204359 18 11 6.0 14.0 0.00 0.00 0.00 71 1012.0
20220126203852 18 11 7.0 17.0 0.00 0.00 0.00 71 1012.0
20220126203349 18 11 7.0 17.0 0.00 0.00 0.00 72 1012.0
20220126202847 17 5 5.0 15.0 0.00 0.00 0.00 73 1012.3
20220126202349 16 0 3.0 11.0 0.00 0.00 0.00 71 1012.3
20220126201851 15 0 3.0 9.0 0.00 0.00 0.00 71 1012.3
20220126201346 15 0 3.0 8.0 0.00 0.00 0.00 71 1012.3
20220126200845 15 0 4.0 9.0 0.00 0.00 0.00 70 1012.4
20220126200347 14 0 4.0 10.0 0.00 0.00 0.00 70 1012.4
20220126195845 14 0 5.0 10.0 0.00 0.00 0.00 70 1012.6
20220126195346 13 0 5.0 10.0 0.00 0.00 0.00 70 1012.9
20220126194845 13 0 4.0 12.0 0.00 0.00 0.00 70 1013.1
20220126194344 13 0 4.0 12.0 0.00 0.00 0.00 69 1013.2
20220126193844 13 0 5.0 11.0 0.00 0.00 0.00 69 1013.4
20220126193343 13 0 5.0 11.0 0.00 0.00 0.00 69 1013.5
20220126192843 13 0 5.0 12.0 0.00 0.00 0.00 69 1013.6
20220126192343 12 0 5.0 14.0 0.00 0.00 0.00 69 1013.6
20220126191841 12 0 5.0 14.0 0.00 0.00 0.00 68 1013.7
20220126191345 12 0 5.0 12.0 0.00 0.00 0.00 68 1013.7
20220126190841 12 0 5.0 12.0 0.00 0.00 0.00 68 1013.9
20220126190343 11 0 4.0 11.0 0.00 0.00 0.00 68 1014.2
20220126185841 11 0 5.0 14.0 0.00 0.00 0.00 67 1014.3
20220126185341 11 0 5.0 14.0 0.00 0.00 0.00 66 1014.5
20220126184841 11 0 5.0 12.0 0.00 0.00 0.00 66 1014.8
20220126184341 11 0 6.0 15.0 0.00 0.00 0.00 66 1014.9
20220126183842 11 0 6.0 15.0 0.00 0.00 0.00 66 1014.9
20220126183342 11 0 5.0 12.0 0.00 0.00 0.00 66 1015.1
20220126182841 10 328 5.0 12.0 0.00 0.00 0.00 65 1015.5
20220126182341 10 328 5.0 12.0 0.00 0.00 0.00 65 1015.8
20220126181840 10 328 5.0 12.0 0.00 0.00 0.00 65 1016.0
20220126181340 10 328 6.0 13.0 0.00 0.00 0.00 64 1016.4
20220126180840 9 328 5.0 13.0 0.00 0.00 0.00 64 1016.6
20220126180338 9 328 5.0 12.0 0.00 0.00 0.00 65 1016.9
20220126175839 9 330 5.0 11.0 0.00 0.00 0.00 65 1017.1
20220126175337 8 333 4.0 11.0 0.00 0.00 0.00 65 1017.2
20220126174836 8 332 5.0 11.0 0.00 0.00 0.00 65 1017.4
20220126174337 7 332 5.0 12.0 0.00 0.00 0.00 64 1017.6
20220126173841 7 329 5.0 12.0 0.00 0.00 0.00 64 1017.7
20220126173338 7 331 5.0 13.0 0.00 0.00 0.00 64 1018.0
20220126172836 7 329 6.0 13.0 0.00 0.00 0.00 63 1018.1
20220126172337 6 334 5.0 12.0 0.00 0.00 0.00 65 1018.2
20220126171838 6 333 5.0 13.0 0.00 0.00 0.00 64 1018.3
20220126171337 5 333 5.0 13.0 0.00 0.00 0.00 65 1018.6
20220126170837 5 333 5.0 12.0 0.00 0.00 0.00 65 1018.7
20220126170337 4 333 5.0 10.0 0.00 0.00 0.00 65 1018.9
20220126165837 3 333 5.0 11.0 0.00 0.00 0.00 67 1019.1
20220126165337 3 333 4.0 11.0 0.00 0.00 0.00 67 1019.3
20220126164836 2 333 4.0 10.0 0.00 0.00 0.00 67 1019.4
20220126164338 2 333 4.0 11.0 0.00 0.00 0.00 67 1019.6
20220126163837 1 333 4.0 11.0 0.00 0.00 0.00 68 1019.7
20220126163337 1 333 5.0 11.0 0.00 0.00 0.00 69 1019.8
20220126162835 0 333 4.0 10.0 0.00 0.00 0.00 70 1019.9
20220126162336 -1 331 4.0 9.0 0.00 0.00 0.00 71 1019.9
20220126161837 -2 331 4.0 9.0 0.00 0.00 0.00 72 1020.0
20220126161337 -2 331 4.0 9.0 0.00 0.00 0.00 72 1020.2
20220126160834 -3 331 3.0 9.0 0.00 0.00 0.00 73 1020.3
20220126160337 -3 331 3.0 9.0 0.00 0.00 0.00 73 1020.3
20220126155834 -3 331 3.0 9.0 0.00 0.00 0.00 75 1020.4
20220126155338 -4 331 4.0 12.0 0.00 0.00 0.00 75 1020.5
20220126154837 -5 331 3.0 12.0 0.00 0.00 0.00 76 1020.6
20220126154333 -5 331 2.0 6.0 0.00 0.00 0.00 77 1020.7
20220126153834 -6 331 3.0 9.0 0.00 0.00 0.00 77 1020.9
20220126153333 -7 331 3.0 9.0 0.00 0.00 0.00 78 1021.0
20220126152840 -7 331 2.0 9.0 0.00 0.00 0.00 78 1021.1
20220126152332 -8 331 2.0 9.0 0.00 0.00 0.00 79 1021.1
20220126151833 -9 331 3.0 9.0 0.00 0.00 0.00 79 1021.4
20220126151332 -9 331 2.0 9.0 0.00 0.00 0.00 80 1021.6
20220126150833 -10 331 2.0 9.0 0.00 0.00 0.00 79 1021.8
20220126150333 -10 331 2.0 9.0 0.00 0.00 0.00 80 1021.9
20220126145832 -11 331 1.0 6.0 0.00 0.00 0.00 80 1022.1
20220126145332 -11 331 2.0 6.0 0.00 0.00 0.00 79 1022.3
20220126144832 -12 331 1.0 5.0 0.00 0.00 0.00 79 1022.4
20220126144332 -12 331 1.0 8.0 0.00 0.00 0.00 79 1022.5
20220126143833 -12 331 2.0 9.0 0.00 0.00 0.00 79 1022.6
20220126143335 -12 331 2.0 9.0 0.00 0.00 0.00 79 1022.7
20220126142832 -12 331 2.0 8.0 0.00 0.00 0.00 80 1023.1
20220126142329 -12 331 1.0 5.0 0.00 0.00 0.00 80 1023.0
20220126141830 -13 331 0.0 5.0 0.00 0.00 0.00 80 1023.1
20220126141328 -13 331 0.0 5.0 0.00 0.00 0.00 80 1023.2
20220126140827 -14 331 1.0 5.0 0.00 0.00 0.00 80 1023.2
20220126140327 -14 331 0.0 4.0 0.00 0.00 0.00 80 1023.3
20220126135827 -14 331 0.0 4.0 0.00 0.00 0.00 79 1023.4
20220126135324 -15 331 0.0 3.0 0.00 0.00 0.00 79 1023.5
20220126134520 -15 331 0.0 3.0 0.00 0.00 0.00 79 1023.7
20220126134014 -15 331 0.0 3.0 0.00 0.00 0.00 79 1023.7
20220126133508 -15 331 1.0 3.0 0.00 0.00 0.00 79 1023.7
20220126133003 -15 331 1.0 6.0 0.00 0.00 0.00 79 1023.8
20220126132456 -15 331 1.0 6.0 0.00 0.00 0.00 79 1023.9
20220126131951 -15 331 0.0 5.0 0.00 0.00 0.00 79 1024.0
20220126131445 -15 331 0.0 4.0 0.00 0.00 0.00 79 1024.2
20220126130939 -15 331 0.0 4.0 0.00 0.00 0.00 79 1024.3
20220126130433 -15 331 0.0 3.0 0.00 0.00 0.00 79 1024.4
20220126125927 -15 331 0.0 5.0 0.00 0.00 0.00 79 1024.5
20220126125421 -15 331 0.0 5.0 0.00 0.00 0.00 79 1024.5
20220126124916 -15 331 0.0 5.0 0.00 0.00 0.00 79 1024.6
20220126124409 -15 331 0.0 5.0 0.00 0.00 0.00 79 1024.6
20220126123902 -15 331 1.0 5.0 0.00 0.00 0.00 79 1024.7
20220126123357 -15 331 1.0 5.0 0.00 0.00 0.00 79 1024.6
20220126122851 -15 331 1.0 5.0 0.00 0.00 0.00 79 1024.6
20220126122346 -15 331 1.0 5.0 0.00 0.00 0.00 79 1024.6
20220126121838 -15 331 1.0 5.0 0.00 0.00 0.00 79 1024.4
20220126121332 -15 331 1.0 5.0 0.00 0.00 0.00 79 1024.5
20220126120826 -15 331 1.0 4.0 0.00 0.00 0.00 79 1024.8
20220126120322 -15 331 1.0 5.0 0.00 0.00 0.00 79 1024.9
20220126115815 -15 331 1.0 5.0 0.00 0.00 0.00 79 1025.1
20220126115315 -15 331 0.0 3.0 0.00 0.00 0.00 79 1025.3
20220126114815 -15 331 0.0 3.0 0.00 0.00 0.00 79 1025.2
20220126114315 -15 331 0.0 3.0 0.00 0.00 0.00 79 1025.3
20220126113816 -14 331 0.0 3.0 0.00 0.00 0.00 79 1025.4
20220126113314 -14 331 0.0 2.0 0.00 0.00 0.00 79 1025.5
20220126112813 -14 331 0.0 3.0 0.00 0.00 0.00 79 1025.6
20220126112309 -14 331 0.0 4.0 0.00 0.00 0.00 79 1025.8
20220126111806 -14 331 0.0 3.0 0.00 0.00 0.00 79 1025.9
20220126111303 -14 331 0.0 3.0 0.00 0.00 0.00 79 1026.0
20220126110802 -14 331 0.0 3.0 0.00 0.00 0.00 79 1026.2
20220126110300 -14 331 0.0 2.0 0.00 0.00 0.00 79 1026.3
20220126105800 -14 331 0.0 1.0 0.00 0.00 0.00 79 1026.3
20220126105259 -14 331 0.0 1.0 0.00 0.00 0.00 79 1026.3
20220126104759 -13 331 0.0 3.0 0.00 0.00 0.00 79 1026.3
20220126104259 -13 331 0.0 4.0 0.00 0.00 0.00 80 1026.4
20220126103759 -13 331 0.0 4.0 0.00 0.00 0.00 80 1026.4
20220126103300 -13 331 0.0 2.0 0.00 0.00 0.00 80 1026.5
20220126102758 -13 331 0.0 2.0 0.00 0.00 0.00 80 1026.6
20220126102254 -13 331 0.0 2.0 0.00 0.00 0.00 80 1026.9
20220126101753 -13 331 0.0 1.0 0.00 0.00 0.00 79 1026.9
20220126101251 -13 331 0.0 1.0 0.00 0.00 0.00 80 1027.0
20220126100751 -13 331 0.0 2.0 0.00 0.00 0.00 79 1027.1
20220126100250 -13 331 0.0 2.0 0.00 0.00 0.00 79 1027.2
20220126095750 -13 331 0.0 1.0 0.00 0.00 0.00 79 1027.1
20220126095251 -13 331 0.0 1.0 0.00 0.00 0.00 79 1027.2
20220126094752 -13 331 0.0 1.0 0.00 0.00 0.00 79 1027.3
20220126094250 -13 331 0.0 1.0 0.00 0.00 0.00 79 1027.4
20220126093748 -13 331 0.0 1.0 0.00 0.00 0.00 79 1027.4
20220126093248 -13 331 0.0 0.0 0.00 0.00 0.00 79 1027.5
20220126092745 -13 331 0.0 0.0 0.00 0.00 0.00 79 1027.7
20220126092245 -13 331 0.0 0.0 0.00 0.00 0.00 79 1027.8
20220126091741 -13 331 0.0 1.0 0.00 0.00 0.00 79 1027.8
20220126091239 -13 331 0.0 2.0 0.00 0.00 0.00 79 1027.9
20220126090736 -13 331 0.0 3.0 0.00 0.00 0.00 79 1027.9
20220126090235 -13 331 0.0 3.0 0.00 0.00 0.00 79 1027.9
20220126085733 -13 331 0.0 0.0 0.00 0.00 0.00 79 1027.9
20220126085233 -13 331 0.0 1.0 0.00 0.00 0.00 79 1028.0
20220126084732 -13 331 0.0 3.0 0.00 0.00 0.00 79 1028.1
20220126084232 -13 331 0.0 3.0 0.00 0.00 0.00 79 1028.2